AirNav   Bose ProFlight Series 2 Headset
 
 1601 users online  

KAPT Marion County Airport-Brown Field
Jasper, Tennessee, USA

GOING TO JASPER?


FAA INFORMATION EFFECTIVE 30 JANUARY 2020

Location

FAA Identifier: APT
Lat/Long: 35-03-38.4000N 085-35-07.1000W
35-03.640000N 085-35.118333W
35.0606667,-85.5853056
(estimated)
Elevation: 641.2 ft. / 195.4 m (surveyed)
Variation: 02W (1990)
From city: 4 miles SE of JASPER, TN
Time zone: UTC -6 (UTC -5 during Daylight Saving Time)
Zip code: 37347

Airport Operations

Airport use: Open to the public
Control tower: no
ARTCC: ATLANTA CENTER
FSS: NASHVILLE FLIGHT SERVICE STATION
NOTAMs facility: BNA (NOTAM-D service available)
Attendance: MON-SAT 0800-1700, ALL SUN 1300-1700
CLSD FED HOLIDAYS.
Wind indicator: yes
Segmented circle: yes
Lights: SS-SR
Beacon: white-green (lighted land airport)
Operates sunset to sunrise.

Airport Communications

CTAF/UNICOM: 122.8
CHATTANOOGA APPROACH: 119.2
CHATTANOOGA DEPARTURE: 119.2
WX ASOS at CHA (19 nm E): 119.85 (423-499-5973)
  • APCH/DEP SVC PRVDD BY ATLANTA ARTCC ON FREQS 132.05/354.025 (CHATTANOOGA RCAG) WHEN CHATTANOOGA APCH CTL CLSD.

Nearby radio navigation aids

VOR radial/distance  VOR name  Freq  Var
GQOr285/22.0CHOO CHOO VORTAC115.8001E

 
NDB name  Hdg/Dist  Freq  Var  ID
DAISY255/21.934102WCQN -.-. --.- -.
FORT PAYNE012/32.742604WFTP ..-. - .--.

Airport Services

Fuel available: 100LL JET-A+ MOGAS
Parking: hangars and tiedowns
Airframe service: NONE
Powerplant service: NONE
Bottled oxygen: NONE
Bulk oxygen: NONE

Runway Information

Runway 4/22

Dimensions: 3498 x 75 ft. / 1066 x 23 m
Surface: asphalt, in good condition
Weight bearing capacity: 
Single wheel: 30.0
Runway edge lights: medium intensity
RUNWAY 4  RUNWAY 22
Latitude: 35-03.413527N35-03.867907N
Longitude: 085-35.334935W085-34.903055W
Elevation: 641.0 ft.640.8 ft.
Traffic pattern: leftright
Runway heading: 040 magnetic, 038 true220 magnetic, 218 true
Markings: nonprecision, in good conditionnonprecision, in good condition
Visual slope indicator: 4-light PAPI on left (3.50 degrees glide path)4-light PAPI on left (3.50 degrees glide path)
Runway end identifier lights: yesyes
Touchdown point: yes, no lightsyes, no lights
Obstructions: 48 ft. tree, 1253 ft. from runway, 355 ft. right of centerline, 22:1 slope to clear75 ft. tree, 1987 ft. from runway, 19 ft. both sides of centerline, 24:1 slope to clear

Airport Ownership and Management from official FAA records

Ownership: Publicly-owned
Owner: MARION COUNTY
31 COURTHOUSE SQUARE
JASPER, TN 37347
Phone 423-942-2552
Manager: BETH GUDGER
300 AIRPORT RD
JASPER, TN 37347
Phone 423-942-5234

Airport Operational Statistics

Aircraft based on the field: 32
Single engine airplanes: 23
Multi engine airplanes: 1
Ultralights: 8
    
Aircraft operations: avg 23/day *
62% local general aviation
36% transient general aviation
2% military
* for 12-month period ending 31 December 2018

Additional Remarks

ULTRALIGHT ACT ON AND INVOF ARPT.
DEER ON & INVOF ARPT.
FOR CD CTC CHATTANOOGA APCH AT 423-855-6478. WHEN APCH CLSD FOR CD CTC MEMPHIS ARTCC AT 901-368-8453.

Instrument Procedures

NOTE: All procedures below are presented as PDF files. If you need a reader for these files, you should download the free Adobe Reader.

NOT FOR NAVIGATION. Please procure official charts for flight.
FAA instrument procedures published for use from 30 January 2020 at 0901Z to 27 Feburary 2020 at 0900Z.

 
IAPs - Instrument Approach Procedures
RNAV (GPS) RWY 04   download (244KB)
NOTE: Special Take-Off Minimums/Departure Procedures apply   download (126KB)

Other nearby airports with instrument procedures:

KCHA - Lovell Field Airport (19 nm E)
KBGF - Winchester Municipal Airport (25 nm W)
9A5 - Barwick Lafayette Airport (27 nm SE)
4A6 - Scottsboro Municipal Airport-Word Field (30 nm SW)
4A9 - Isbell Field Airport (36 nm S)
 
Loc | Ops | Rwys | IFR | FBO | Links
Com | Nav | Svcs | Stats | Notes
Area around KAPT (Marion County Airport-Brown Field)
 
Road maps at: MapQuest Bing Google
 
Aerial photo
WARNING: Photo may not be current or correct
Aerial photo of KAPT (Marion County Airport-Brown Field)
Photo by Antonio Moré
Photo taken 04-Nov-2007

Do you have a better or more recent aerial photo of Marion County Airport-Brown Field that you would like to share? If so, please send us your photo.

 
Sectional chart

 
Airport distance calculator
Flying to Marion County Airport-Brown Field? Find the distance to fly.

From to KAPT

Sunrise and sunset
Times for 20-Feb-2020
 Local
(UTC-6)
 Zulu
(UTC)
Morning civil twilight05:5811:58
Sunrise06:2412:24
Sunset17:2823:28
Evening civil twilight17:5423:54

Current date and time
Zulu (UTC)  20-Feb-2020 17:02:12
Local (UTC-6)  20-Feb-2020 11:02:12
 
METAR
KCHA 
19nm E 
201653Z 03012KT 9SM -RA BKN011 BKN020 OVC040 04/04 A3037 RMK AO2 SLP285 P0002 T00440044 $
KBGF 
25nm W 
201655Z AUTO 04009KT 6SM BR BKN007 BKN011 BKN016 02/01 A3037 RMK A01 P0002
K9A5 
27nm SE 
201655Z AUTO 02007KT 10SM BKN013 BKN027 OVC041 04/03 A3035 RMK AO2 T00360030
K4A6 
30nm SW 
201655Z AUTO 04009KT 2SM -RA FEW008 FEW015 SCT036 04/04 A3035 RMK AO2
KDNN 
31nm SE 
201635Z AUTO 36006KT 10SM -RA BKN026 OVC036 05/03 A3036 RMK AO2
K4A9 
36nm S 
201655Z AUTO 05010KT 10SM -RA SCT010 BKN017 OVC030 04/03 A3031 RMK AO2 P0006 T00410031
KTHA 
38nm NW 
201655Z AUTO 02006G12KT 1 3/4SM BR BKN005 01/00 A3038 RMK A01 P0003
TAF
KCHA 
19nm E 
201136Z 2012/2112 02005KT P6SM -RA OVC035 FM201400 02007KT P6SM -RA OVC025 FM201700 02011KT 5SM -RA SCT007 OVC012 TEMPO 2017/2021 2SM -SNRA OVC007 FM202200 01011KT P6SM VCSH BKN015 OVC025 FM210000 36013KT P6SM OVC050 FM210400 35013KT P6SM BKN250
NOTAMs
Click for the latest NOTAMs
NOTAMs are issued by the DoD/FAA and will open in a separate window not controlled by AirNav.

 

 
 

FBO, Fuel Providers, and Aircraft Ground Support

  
 Business Name 
 
 Contact 
 
 Services / Description 
 
Fuel Prices
 
Comments
  
Marion County Airport 423-942-5234 Airport management, Aviation fuel

More info about Marion County Airport
Phillips 66
100LL Jet A Mogas
SS $4.39 $3.99 $3.25 
 Updated 11-Feb-2020
 
   2 read write
SS=Self service
Update Fuel Prices
 

Would you like to see your business listed on this page?

 If your business provides an interesting product or service to pilots, flight crews, aircraft, or users of the Marion County Airport-Brown Field, you should consider listing it here.  To start the listing process, click on the button below
 
Add a business
 

Other Pages about Marion County Airport-Brown Field

Update a link
 
Copyright © AirNav, LLC. All rights reserved. Privacy Policy  Contact